Location: Unspecified
(0.0000°N, 0.0000°E)
Time: 06:33:52
(UTC+00:00)

Courier 1B - Pass Details

Date: 21 November 2019
Orbit: 963 x 1209 km, 28.3° (Epoch: 11 December)

Event Time Altitude Azimuth Distance (km) Brightness Sun altitude
Rises 10:06:37 0° 328° (NNW) 3,640 10.2 58.6°
Reaches altitude 10° 10:10:42 10° 353° (N) 2,681 9.7 59.4°
Maximum altitude 10:14:00 14° 24° (NNE) 2,377 9.6 60.0°
Drops below altitude 10° 10:17:19 10° 55° (NE) 2,690 10.0 60.6°
Sets 10:21:24 0° 79° (E) 3,661 10.7 61.3°
